Weather History for Olathe New Century, KS

Change the Weather History Date:

Wednesday, December 12, 2012

  Actual Average Record
Temperature  
Mean Temperature 34 °F -  
Max Temperature 48 °F 41 °F 52 °F (2004)
Min Temperature 21 °F 24 °F 0 °F (2000)
Degree Days  
Heating Degree Days 30    
Moisture  
Dew Point 13 °F    
Average Humidity 47    
Maximum Humidity 75    
Minimum Humidity 19    
Precipitation  
Precipitation 0.00 in - - ()
Sea Level Pressure  
Sea Level Pressure 30.17 in    
Wind  
Wind Speed 10 mph (South)    
Max Wind Speed 24 mph    
Max Gust Speed 30 mph    
Visibility 10 miles    
Events      
Averages and records for this station are not official NWS values.
T = Trace of Precipitation, MM = Missing Value Source: NWS Daily Summary

Daily Weather History Graph

Daily Weather History Graph

Search for Another Location

Airport:

Trip Planner

Search our weather history database for the weather conditions in past years. The results will help you decide how hot, cold, wet, or windy it might be!

Date:

Astronomy

Dec. 12, 2012 Rise Set
Actual Time 7:29 AM CST 4:58 PM CST
Civil Twilight 6:59 AM CST 5:27 PM CST
Nautical Twilight 6:25 AM CST 6:01 PM CST
Astronomical Twilight 5:53 AM CST 6:33 PM CST
Moon 6:34 AM CST (12/12) 4:35 PM CST (12/12)
Length of Visible Light 10h 28m
Length of Day
9h 29m
Waning Crescent, 1% of the Moon is Illuminated
Dec 12
Waning Crescent
Dec 13
New
Dec 19
First Quarter
Dec 28
Full
Jan 4
Last Quarter

Hourly Weather History & Observations

Time (CST) Temp. Windchill Dew Point Humidity Pressure Visibility Wind Dir Wind Speed Gust Speed Precip Events Conditions
12:53 AM 23.0 °F 14.7 °F 14.0 °F 68% 30.16 in 10.0 mi South 6.9 mph - N/A   Clear
1:53 AM 21.0 °F 13.4 °F 12.9 °F 71% 30.16 in 10.0 mi South 5.8 mph - N/A   Clear
2:53 AM 23.0 °F 14.7 °F 15.1 °F 72% 30.17 in 10.0 mi South 6.9 mph - N/A   Clear
3:53 AM 21.9 °F 14.5 °F 14.0 °F 72% 30.16 in 10.0 mi South 5.8 mph - N/A   Clear
4:53 AM 21.9 °F 14.5 °F 15.1 °F 75% 30.17 in 10.0 mi South 5.8 mph - N/A   Clear
5:53 AM 23.0 °F 13.9 °F 16.0 °F 74% 30.19 in 10.0 mi South 8.1 mph - N/A   Clear
6:53 AM 23.0 °F 12.4 °F 16.0 °F 74% 30.19 in 10.0 mi South 10.4 mph - N/A   Clear
7:53 AM 24.1 °F 14.4 °F 16.0 °F 71% 30.20 in 10.0 mi South 9.2 mph - N/A   Clear
8:53 AM 30.0 °F 21.7 °F 18.0 °F 61% 30.21 in 10.0 mi South 9.2 mph - N/A   Clear
9:53 AM 37.0 °F 28.1 °F 18.0 °F 46% 30.24 in 10.0 mi SSW 15.0 mph - N/A   Clear
10:53 AM 44.1 °F 36.8 °F 15.1 °F 31% 30.24 in 10.0 mi SSW 16.1 mph 21.9 mph N/A   Clear
11:53 AM 46.0 °F 37.6 °F 14.0 °F 28% 30.20 in 10.0 mi South 24.2 mph 29.9 mph N/A   Clear
12:53 PM 48.0 °F - 12.0 °F 24% 30.19 in 10.0 mi South 21.9 mph 27.6 mph N/A   Clear
1:53 PM 48.9 °F - 9.0 °F 20% 30.16 in 10.0 mi South 18.4 mph 26.5 mph N/A   Clear
2:53 PM 48.9 °F - 8.1 °F 19% 30.15 in 10.0 mi South 18.4 mph 27.6 mph N/A   Clear
3:53 PM 46.9 °F - 9.0 °F 21% 30.15 in 10.0 mi South 15.0 mph 23.0 mph N/A   Clear
4:53 PM 43.0 °F 36.4 °F 10.0 °F 26% 30.14 in 10.0 mi South 12.7 mph - N/A   Clear
5:53 PM 39.9 °F 32.5 °F 12.0 °F 32% 30.14 in 10.0 mi SSE 12.7 mph - N/A   Clear
6:53 PM 39.0 °F 31.8 °F 12.9 °F 34% 30.14 in 10.0 mi South 11.5 mph - N/A   Clear
7:53 PM 36.0 °F 29.6 °F 12.9 °F 39% 30.15 in 10.0 mi SSE 8.1 mph - N/A   Clear
8:53 PM 35.1 °F 27.9 °F 12.9 °F 40% 30.15 in 10.0 mi South 9.2 mph - N/A   Clear
9:53 PM 35.1 °F 27.9 °F 12.9 °F 40% 30.17 in 10.0 mi South 9.2 mph - N/A   Clear
10:53 PM 34.0 °F 28.8 °F 12.0 °F 40% 30.17 in 10.0 mi South 5.8 mph - N/A   Clear
11:53 PM 36.0 °F 28.5 °F 12.9 °F 39% 30.17 in 10.0 mi South 10.4 mph - N/A   Clear